STW115 URWA-UWWW

Flight info

Callsign STW115
Flight time 1h 28m
Altitude 35000
Route OMIRA5B OMIRA G242 LIDUS N50 MOLED R807 UROBO P135 TUNIG TUNIG2G
Aircraft B38M/M-SDE1FGHILORVWXY/HB1

Departure

Time 2026-04-30 17:59
Airport Astrakhan Narimanovo Boris M. Kustodiev International Airport (URWA)

Arrival

Time 2026-04-30 19:27
Airport Kurumoch International Airport (UWWW)
Time Latitude Longitude Altitude Speed Heading
2026-04-30 17:39 46.28560 48.00206 -60 ft 0 kts
2026-04-30 17:53 46.28598 48.00315 -63 ft 19 kts 98°
2026-04-30 17:54 46.28481 48.01312 -56 ft 29 kts 101°
2026-04-30 17:55 46.28364 48.02253 -61 ft 12 kts 172°
2026-04-30 17:56 46.28203 48.02102 -59 ft 0 kts 278°
2026-04-30 17:57 46.28205 48.02084 -59 ft 4 kts 278°
2026-04-30 17:58 46.28429 47.99167 243 ft 188 kts 274°
2026-04-30 17:59 46.30478 47.92312 4178 ft 215 kts 305°
2026-04-30 18:00 46.34402 47.84092 7459 ft 265 kts 302°
2026-04-30 18:00 46.37534 47.77334 10525 ft 274 kts 301°
2026-04-30 18:01 46.39768 47.72486 11754 ft 304 kts 301°
2026-04-30 18:02 46.43378 47.64636 14318 ft 317 kts 300°
2026-04-30 18:02 46.47106 47.56506 16781 ft 326 kts 299°
2026-04-30 18:03 46.50907 47.48197 19057 ft 334 kts 298°
2026-04-30 18:04 46.54806 47.39650 21061 ft 341 kts 298°
2026-04-30 18:05 46.60110 47.27977 23599 ft 352 kts 297°
2026-04-30 18:06 46.65540 47.15976 25747 ft 358 kts 296°
2026-04-30 18:07 46.71025 47.03753 27733 ft 364 kts 296°
2026-04-30 18:08 46.75167 46.94426 29120 ft 369 kts 296°
2026-04-30 18:09 46.80798 46.81698 30687 ft 377 kts 296°
2026-04-30 18:10 46.86566 46.68598 31783 ft 390 kts 296°
2026-04-30 18:11 46.92481 46.55101 33113 ft 397 kts 297°
2026-04-30 18:11 46.96949 46.44860 34103 ft 401 kts 297°
2026-04-30 18:12 47.01469 46.34463 34881 ft 405 kts 297°
2026-04-30 18:13 47.04767 46.27734 35135 ft 417 kts 311°
2026-04-30 18:13 47.11672 46.21978 35161 ft 434 kts 326°
2026-04-30 18:14 47.18022 46.17455 35163 ft 436 kts 327°
2026-04-30 18:15 47.34487 46.05837 35171 ft 439 kts 327°
2026-04-30 18:16 47.45516 45.98037 35174 ft 439 kts 327°
2026-04-30 18:17 47.50109 45.94781 35166 ft 439 kts 327°
2026-04-30 18:18 47.58398 45.88888 35170 ft 439 kts 327°
2026-04-30 18:18 47.63873 45.84985 35169 ft 439 kts 327°
2026-04-30 18:19 47.69379 45.81051 35172 ft 438 kts 327°
2026-04-30 18:19 47.74880 45.77111 35170 ft 438 kts 327°
2026-04-30 18:20 47.80348 45.73184 35169 ft 438 kts 327°
2026-04-30 18:20 47.85857 45.69220 35174 ft 439 kts 327°
2026-04-30 18:21 47.91332 45.65270 35170 ft 439 kts 327°
2026-04-30 18:21 47.96849 45.61281 35172 ft 439 kts 327°
2026-04-30 18:22 48.02354 45.57291 35169 ft 440 kts 327°
2026-04-30 18:22 48.10597 45.51299 35169 ft 440 kts 327°
2026-04-30 18:23 48.16113 45.47276 35171 ft 440 kts 327°
2026-04-30 18:23 48.21623 45.43249 35165 ft 441 kts 327°
2026-04-30 18:24 48.29863 45.37209 35163 ft 441 kts 327°
2026-04-30 18:25 48.35379 45.33155 35165 ft 441 kts 327°
2026-04-30 18:25 48.43170 45.26104 35159 ft 432 kts 316°
2026-04-30 18:26 48.50298 45.17825 35163 ft 432 kts 316°
2026-04-30 18:27 48.57444 45.09451 35158 ft 433 kts 316°
2026-04-30 18:28 48.64565 45.01073 35168 ft 434 kts 316°
2026-04-30 18:28 48.71692 44.92659 35160 ft 434 kts 316°
2026-04-30 18:29 48.81448 44.81776 35148 ft 444 kts 331°
2026-04-30 18:30 48.87626 44.80370 35159 ft 469 kts
2026-04-30 18:30 48.94060 44.82810 35154 ft 478 kts 10°
2026-04-30 18:31 49.03698 44.86829 35157 ft 479 kts 10°
2026-04-30 18:32 49.13315 44.90897 35154 ft 479 kts 11°
2026-04-30 18:33 49.22949 44.94990 35155 ft 479 kts 11°
2026-04-30 18:33 49.32562 44.99090 35157 ft 479 kts 11°
2026-04-30 18:34 49.42215 45.03224 35155 ft 479 kts 11°
2026-04-30 18:35 49.48651 45.05990 35151 ft 479 kts 11°
2026-04-30 18:35 49.55041 45.08744 35146 ft 479 kts 11°
2026-04-30 18:36 49.64682 45.12911 35145 ft 480 kts 12°
2026-04-30 18:37 49.74300 45.17107 35148 ft 480 kts 12°
2026-04-30 18:37 49.80726 45.19921 35147 ft 480 kts 12°
2026-04-30 18:38 49.87174 45.22752 35138 ft 480 kts 12°
2026-04-30 18:38 49.93611 45.25587 35136 ft 480 kts 12°
2026-04-30 18:39 50.00015 45.28414 35136 ft 480 kts 12°
2026-04-30 18:39 50.06494 45.30659 35137 ft 478 kts
2026-04-30 18:40 50.13004 45.32860 35132 ft 478 kts
2026-04-30 18:40 50.19509 45.35089 35130 ft 478 kts
2026-04-30 18:41 50.26023 45.37328 35131 ft 478 kts
2026-04-30 18:41 50.32489 45.39557 35126 ft 478 kts
2026-04-30 18:42 50.38995 45.41805 35128 ft 478 kts
2026-04-30 18:42 50.48717 45.45178 35123 ft 478 kts
2026-04-30 18:45 50.84454 45.57731 35112 ft 478 kts
2026-04-30 18:46 50.90920 45.60048 35113 ft 478 kts
2026-04-30 18:46 50.97414 45.62381 35111 ft 478 kts
2026-04-30 18:47 51.03880 45.64984 35106 ft 481 kts 20°
2026-04-30 18:47 51.09924 45.69529 35111 ft 484 kts 22°
2026-04-30 18:48 51.16028 45.74093 35104 ft 484 kts 23°
2026-04-30 18:48 51.22130 45.78681 35104 ft 484 kts 23°
2026-04-30 18:49 51.28186 45.83248 35099 ft 484 kts 23°
2026-04-30 18:49 51.34282 45.87859 35108 ft 484 kts 23°
2026-04-30 18:50 51.40384 45.92488 35097 ft 484 kts 23°
2026-04-30 18:50 51.46484 45.97129 35091 ft 484 kts 23°
2026-04-30 18:51 51.52540 46.01751 35085 ft 484 kts 23°
2026-04-30 18:51 51.58255 46.07436 35090 ft 486 kts 41°
2026-04-30 18:52 51.63414 46.14528 35078 ft 488 kts 39°
2026-04-30 18:52 51.68531 46.21627 35077 ft 487 kts 40°
2026-04-30 18:53 51.73666 46.28793 35076 ft 487 kts 40°
2026-04-30 18:53 51.78782 46.35957 35074 ft 486 kts 40°
2026-04-30 18:54 51.83402 46.43778 35088 ft 485 kts 53°
2026-04-30 18:54 51.87552 46.52378 35082 ft 485 kts 52°
2026-04-30 18:55 51.91691 46.60999 35067 ft 482 kts 52°
2026-04-30 18:55 51.95727 46.69436 35069 ft 467 kts 53°
2026-04-30 18:55 51.97715 46.73602 35070 ft 465 kts 53°
2026-04-30 18:56 52.03622 46.86020 35051 ft 464 kts 53°
2026-04-30 18:57 52.09545 46.98530 34946 ft 466 kts 53°
2026-04-30 18:57 52.11512 47.02702 34715 ft 465 kts 53°
2026-04-30 18:57 52.13483 47.06886 34459 ft 466 kts 53°
2026-04-30 18:58 52.17412 47.15252 33964 ft 468 kts 54°
2026-04-30 18:58 52.19394 47.19485 33674 ft 469 kts 54°
2026-04-30 18:58 52.21358 47.23690 33387 ft 470 kts 54°
2026-04-30 18:59 52.25322 47.32192 32815 ft 470 kts 54°
2026-04-30 19:00 52.31230 47.44920 31146 ft 464 kts 54°
2026-04-30 19:00 52.33154 47.49078 30598 ft 464 kts 54°
2026-04-30 19:00 52.37042 47.57498 29412 ft 463 kts 55°
2026-04-30 19:01 52.40941 47.65971 28348 ft 466 kts 56°
2026-04-30 19:01 52.42868 47.70168 27830 ft 467 kts 56°
2026-04-30 19:02 52.46783 47.78717 26755 ft 468 kts 56°
2026-04-30 19:02 52.50699 47.87297 25666 ft 470 kts 56°
2026-04-30 19:03 52.54585 47.95841 24590 ft 464 kts 57°
2026-04-30 19:03 52.57771 48.02865 23736 ft 457 kts 57°
2026-04-30 19:04 52.62142 48.12533 22338 ft 447 kts 57°
2026-04-30 19:04 52.65233 48.19395 21552 ft 442 kts 57°
2026-04-30 19:05 52.68811 48.27358 20559 ft 428 kts 57°
2026-04-30 19:05 52.72307 48.35165 19579 ft 415 kts 57°
2026-04-30 19:06 52.75674 48.42703 18628 ft 405 kts 56°
2026-04-30 19:06 52.77342 48.46448 18126 ft 400 kts 56°
2026-04-30 19:06 52.80578 48.53729 17151 ft 390 kts 56°
2026-04-30 19:07 52.83725 48.60825 16295 ft 369 kts 57°
2026-04-30 19:07 52.85217 48.64199 15857 ft 354 kts 57°
2026-04-30 19:08 52.88001 48.70504 15027 ft 330 kts 57°
2026-04-30 19:08 52.90684 48.76597 14208 ft 326 kts 57°
2026-04-30 19:08 52.92019 48.79630 13808 ft 325 kts 57°
2026-04-30 19:09 52.94654 48.85637 12874 ft 321 kts 57°
2026-04-30 19:09 52.95944 48.88585 12496 ft 310 kts 57°
2026-04-30 19:09 52.97204 48.91469 12121 ft 308 kts 57°
2026-04-30 19:10 52.99694 48.97177 11276 ft 304 kts 57°
2026-04-30 19:10 53.02158 49.02836 10540 ft 300 kts 57°
2026-04-30 19:11 53.03373 49.05633 10323 ft 297 kts 57°
2026-04-30 19:11 53.05780 49.11180 9854 ft 297 kts 57°
2026-04-30 19:11 53.06985 49.13959 9452 ft 295 kts 56°
2026-04-30 19:12 53.08182 49.16725 9094 ft 292 kts 56°
2026-04-30 19:12 53.09260 49.19543 8889 ft 287 kts 61°
2026-04-30 19:12 53.10291 49.22359 8763 ft 287 kts 60°
2026-04-30 19:13 53.12382 49.28018 8477 ft 286 kts 60°
2026-04-30 19:13 53.14468 49.33644 8178 ft 284 kts 60°
2026-04-30 19:13 53.15506 49.36447 8023 ft 283 kts 60°
2026-04-30 19:14 53.16538 49.39235 7875 ft 282 kts 60°
2026-04-30 19:14 53.17553 49.41981 7726 ft 281 kts 59°
2026-04-30 19:14 53.18576 49.44749 7577 ft 280 kts 59°
2026-04-30 19:14 53.19597 49.47515 7425 ft 279 kts 59°
2026-04-30 19:15 53.20614 49.50276 7280 ft 279 kts 59°
2026-04-30 19:15 53.22633 49.55762 6978 ft 277 kts 59°
2026-04-30 19:15 53.23642 49.58507 6833 ft 276 kts 59°
2026-04-30 19:16 53.24644 49.61237 6687 ft 275 kts 59°
2026-04-30 19:16 53.25628 49.63919 6543 ft 271 kts 59°
2026-04-30 19:16 53.27522 49.69095 6277 ft 250 kts 59°
2026-04-30 19:17 53.28425 49.71565 6143 ft 249 kts 59°
2026-04-30 19:17 53.30217 49.76475 5859 ft 248 kts 59°
2026-04-30 19:17 53.31114 49.78936 5727 ft 247 kts 59°
2026-04-30 19:18 53.32595 49.83006 5512 ft 245 kts 59°
2026-04-30 19:18 53.33767 49.86228 5337 ft 244 kts 59°
2026-04-30 19:18 53.34651 49.88663 5208 ft 243 kts 59°
2026-04-30 19:19 53.35404 49.91187 5053 ft 241 kts 77°
2026-04-30 19:19 53.35416 49.93962 4952 ft 238 kts 101°
2026-04-30 19:19 53.34769 49.99143 4751 ft 218 kts 102°
2026-04-30 19:20 53.34454 50.01578 4612 ft 209 kts 102°
2026-04-30 19:20 53.34145 50.03923 4481 ft 201 kts 102°
2026-04-30 19:20 53.33547 50.08375 4252 ft 194 kts 102°
2026-04-30 19:21 53.33248 50.10574 4107 ft 192 kts 102°
2026-04-30 19:21 53.33363 50.14891 3795 ft 184 kts 72°
2026-04-30 19:22 53.34161 50.18872 3462 ft 180 kts 71°
2026-04-30 19:22 53.35617 50.24550 2924 ft 177 kts 41°
2026-04-30 19:23 53.38774 50.24623 2422 ft 145 kts 346°
2026-04-30 19:24 53.40696 50.23503 2100 ft 145 kts 346°
2026-04-30 19:24 53.41648 50.22937 1920 ft 144 kts 346°
2026-04-30 19:24 53.43525 50.21820 1555 ft 144 kts 346°
2026-04-30 19:25 53.46351 50.20133 1003 ft 142 kts 342°
2026-04-30 19:26 53.48192 50.19020 655 ft 142 kts 340°
2026-04-30 19:26 53.49987 50.17964 447 ft 113 kts 341°
2026-04-30 19:26 53.50568 50.17616 443 ft 71 kts 340°
2026-04-30 19:27 53.51319 50.17167 452 ft 32 kts 340°
2026-04-30 19:27 53.51412 50.16943 450 ft 15 kts 242°
2026-04-30 19:28 53.51356 50.16768 449 ft 18 kts 242°
2026-04-30 19:28 53.51227 50.16370 449 ft 22 kts 242°
2026-04-30 19:29 53.51124 50.16052 449 ft 7 kts 241°
2026-04-30 19:29 53.51130 50.15974 449 ft 8 kts 321°
2026-04-30 19:30 53.51174 50.15934 449 ft 0 kts 332°